Overview Statistics Trail Chart Weather Telemetry Raw packets
 

This is the latest recevied weather packets stored in our database for station/object WA1TYB-13. If no packets are shown the sender has not sent any weather packets the latest 10 day(s).

<< 101 102 103 104 105 106 107 >>
Time Temp. Humidity Pressure Rain* Wind** Luminosity Snow
1787850677 17.22° C 64% 1022.5 hPa 0 mm - 36 W/m² -
1787850373 17.22° C 66% 1022.6 hPa 0 mm - 46 W/m² -
1787850069 16.67° C 66% 1022.2 hPa 0 mm - 55 W/m² -
1787849767 16.67° C 66% 1022.3 hPa 0 mm - 43 W/m² -
1787849463 16.67° C 66% 1022.3 hPa 0 mm - 59 W/m² -
1787849161 16.67° C 66% 1021.5 hPa 0 mm - 80 W/m² -
1787848860 16.67° C 65% 1021.6 hPa 0 mm - 69 W/m² -
1787848555 16.67° C 64% 1021.5 hPa 0 mm - 82 W/m² -
1787848255 17.22° C 64% 1021.5 hPa 0 mm - 92 W/m² -
1787847950 17.22° C 62% 1021.5 hPa 0 mm - 121 W/m² -
1787847649 17.22° C 61% 1021.3 hPa 0 mm - 140 W/m² -
1787847345 17.78° C 62% 1020.9 hPa 0 mm - 161 W/m² -
1787847041 17.78° C 61% 1020.5 hPa 0 mm - 176 W/m² -
1787846736 17.22° C 62% 1020.9 hPa 0 mm - 262 W/m² -
1787846432 17.22° C 63% 1020.4 hPa 0 mm - 248 W/m² -
1787846127 17.22° C 62% 1020.8 hPa 0 mm - 215 W/m² -
1787845823 17.22° C 63% 1020.5 hPa 0 mm - 178 W/m² -
1787845518 16.67° C 63% 1020.4 hPa 0 mm - 180 W/m² -
1787845213 16.67° C 63% 1020.7 hPa 0 mm - 167 W/m² -
1787844911 16.67° C 63% 1020.9 hPa 0 mm - 169 W/m² -
1787844608 16.67° C 61% 1020.9 hPa 0 mm - 176 W/m² -
1787844303 17.78° C 60% 1020.9 hPa 0 mm - 189 W/m² -
1787844003 17.22° C 59% 1020.9 hPa 0 mm - 183 W/m² -
1787843698 17.22° C 59% 1020.8 hPa 0 mm - 211 W/m² -
1787843393 17.22° C 60% 1020.9 hPa 0 mm - 208 W/m² -

* Rain latest hour (hover to see other rain measurements)
** Current wind speed in m/s (hover to see current wind gust speed)